Regional Weather Roundup
Issued by NWS

Home | Current Version | Previous Version | Graphics & Text | Print | Product List | Glossary On
Versions: 1 2 3 4 5 6 7 8 9 10 11 12 13 14 15 16 17 18 19 20 21 22 23 24 25 26 27 28 29 30 31 32 33 34 35 36 37 38 39 40 41 42 43 44 45 46 47 48 49 50
000
ASUS43 KLMK 020410
RWRKY
KENTUCKY REGIONAL WEATHER ROUNDUP
NATIONAL WEATHER SERVICE LOUISVILLE KY
1200 AM EDT THU APR 02 2015

NOTE "FAIR" INDICATES FEW OR NO CLOUDS BELOW 12,000 FEET
WITH NO SIGNIFICANT WEATHER AND/OR OBSTRUCTIONS TO VISIBILITY.

KYZ001>023-026-027-061>063-070>075-020500-
WESTERN AND SOUTH CENTRAL KENTUCKY

CITY           SKY/WX    TMP DP  RH WIND       PRES   REMARKS
PADUCAH        CLOUDY    61  50  67 S13       29.93F
HENDERSON      CLOUDY    63  34  34 SE10      29.95F
OWENSBORO      CLOUDY    63  35  35 SE8       29.98F
HOPKINSVILLE   CLOUDY    64  37  36 SE5       29.97F
BOWLING GREEN  MOCLDY    57  33  40 E3        30.02F
GLASGOW        CLOUDY    50  35  56 E6        30.04F
$$

KYZ024-025-028>034-038-045-046-053-020500-
NORTH CENTRAL KENTUCKY

CITY           SKY/WX    TMP DP  RH WIND       PRES   REMARKS
LOUISVILLE/SDF MOCLDY    56  30  37 SE3       30.05S
LOUISVILLE/LOU MOCLDY    57  28  33 CALM      30.05S
FORT KNOX      MOCLDY    54  31  41 E8        30.02F
$$

KYZ035>037-039>044-047>052-055>060-089>105-020500-
NORTHEAST KENTUCKY

CITY           SKY/WX    TMP DP  RH WIND       PRES   REMARKS
LEXINGTON      MOCLDY    52  26  36 SE7       30.07F
COVINGTON      MOCLDY    50  29  44 S7        30.05F
FRANKFORT      MOCLDY    46  30  53 CALM      30.06F
$$

KYZ054-064>069-076>088-106>120-020500-
SOUTHEAST KENTUCKY

CITY           SKY/WX    TMP DP  RH WIND       PRES   REMARKS
JACKSON        MOCLDY    58  16  19 SE5       30.10F
LONDON         PTCLDY    53  24  32 S3        30.10S
SOMERSET       MOCLDY    48  30  49 CALM      30.10S
MIDDLESBORO    PTCLDY    46  37  70 CALM      30.13S
MONTICELLO     PTCLDY    42  34  73 CALM      30.11S
$$




USA.gov is the U.S. government's official web portal to all federal, state and local government web resources and services.